Le nostre stazioni meteo in Italia

Pubblicità
Il mio iltempo24.it
Capo Frasca, Italia (16539): Temperatura & dewpoint: 17.05.2017 16:00:00 - 23.05.2017 16:00:00 (CEST)Capo Frasca, Italia (16539): velocità del vento: 17.05.2017 16:00:00 - 23.05.2017 16:00:00 (CEST)Capo Frasca, Italia (16539): direzione del vento: 17.05.2017 16:00:00 - 23.05.2017 16:00:00 (CEST)Capo Frasca, Italia (16539): reduced air pressure: 17.05.2017 16:00:00 - 23.05.2017 16:00:00 (CEST)Capo Frasca, Italia (16539): visibility: 17.05.2017 16:00:00 - 23.05.2017 16:00:00 (CEST)
Data & Tempo tt [°C] td [°C] ff [km/h] ff [kn] dd ppp [hPa] vv [km]
23.05.2017 16:00:00 - - - - - - -
23.05.2017 15:00:00 - - - - - - -
23.05.2017 14:00:00 24,2 19,3 22 12 NO 1019,0 30
23.05.2017 13:00:00 - - - - - - -
23.05.2017 12:00:00 - - - - - - -
23.05.2017 11:00:00 24,6 16,8 8 4 N 1019,0 30
23.05.2017 10:00:00 - - - - - - -
23.05.2017 09:00:00 - - - - - - -
23.05.2017 08:00:00 18,0 16,9 9 5 E 1018,5 30
23.05.2017 07:00:00 - - - - - - -
23.05.2017 06:00:00 - - - - - - -
23.05.2017 05:00:00 - - - - - - -
23.05.2017 04:00:00 - - - - - - -
23.05.2017 03:00:00 - - - - - - -
23.05.2017 02:00:00 - - - - - - -
23.05.2017 01:00:00 - - - - - - -
23.05.2017 00:00:00 - - - - - - -
22.05.2017 23:00:00 - - - - - - -
22.05.2017 22:00:00 - - - - - - -
22.05.2017 21:00:00 - - - - - - -
22.05.2017 20:00:00 20,4 20,1 9 5 O 1018,2 30
22.05.2017 19:00:00 - - - - - - -
22.05.2017 18:00:00 - - - - - - -
22.05.2017 17:00:00 22,4 19,8 15 8 ONO 1019,0 30
22.05.2017 16:00:00 - - - - - - -
22.05.2017 15:00:00 - - - - - - -
22.05.2017 14:00:00 23,0 15,8 16 9 O 1019,2 30
22.05.2017 13:00:00 - - - - - - -
22.05.2017 12:00:00 - - - - - - -
22.05.2017 11:00:00 23,0 14,6 9 5 N 1019,1 30
22.05.2017 10:00:00 - - - - - - -
22.05.2017 09:00:00 - - - - - - -
22.05.2017 08:00:00 16,2 15,6 9 5 E 1018,9 30
22.05.2017 07:00:00 - - - - - - -
22.05.2017 06:00:00 - - - - - - -
22.05.2017 05:00:00 - - - - - - -
22.05.2017 04:00:00 - - - - - - -
22.05.2017 03:00:00 - - - - - - -
22.05.2017 02:00:00 - - - - - - -
22.05.2017 01:00:00 - - - - - - -
22.05.2017 00:00:00 - - - - - - -
21.05.2017 23:00:00 - - - - - - -
21.05.2017 22:00:00 - - - - - - -
21.05.2017 21:00:00 - - - - - - -
21.05.2017 20:00:00 19,2 18,0 16 9 NO 1020,0 20
21.05.2017 19:00:00 - - - - - - -
21.05.2017 18:00:00 - - - - - - -
21.05.2017 17:00:00 - - - - - - -
21.05.2017 16:00:00 - - - - - - -
21.05.2017 15:00:00 - - - - - - -
21.05.2017 14:00:00 21,6 18,8 24 13 ONO 1021,2 20
21.05.2017 13:00:00 - - - - - - -
21.05.2017 12:00:00 - - - - - - -
21.05.2017 11:00:00 - - - - - - -
21.05.2017 10:00:00 - - - - - - -
21.05.2017 09:00:00 - - - - - - -
21.05.2017 08:00:00 19,0 19,0 13 7 NNO 1021,2 18
21.05.2017 07:00:00 - - - - - - -
21.05.2017 06:00:00 - - - - - - -
21.05.2017 05:00:00 - - - - - - -
21.05.2017 04:00:00 - - - - - - -
21.05.2017 03:00:00 - - - - - - -
21.05.2017 02:00:00 - - - - - - -
21.05.2017 01:00:00 - - - - - - -
21.05.2017 00:00:00 - - - - - - -
20.05.2017 23:00:00 - - - - - - -
20.05.2017 22:00:00 - - - - - - -
20.05.2017 21:00:00 - - - - - - -
20.05.2017 20:00:00 18,0 15,3 26 14 ONO 1022,3 25
20.05.2017 19:00:00 - - - - - - -
20.05.2017 18:00:00 - - - - - - -
20.05.2017 17:00:00 - - - - - - -
20.05.2017 16:00:00 - - - - - - -
20.05.2017 15:00:00 - - - - - - -
20.05.2017 14:00:00 21,0 16,4 26 14 NO 1022,4 30
20.05.2017 13:00:00 - - - - - - -
20.05.2017 12:00:00 - - - - - - -
20.05.2017 11:00:00 - - - - - - -
20.05.2017 10:00:00 - - - - - - -
20.05.2017 09:00:00 - - - - - - -
20.05.2017 08:00:00 18,6 16,2 26 14 NNO 1021,3 25
20.05.2017 07:00:00 - - - - - - -
20.05.2017 06:00:00 - - - - - - -
20.05.2017 05:00:00 - - - - - - -
20.05.2017 04:00:00 - - - - - - -
20.05.2017 03:00:00 - - - - - - -
20.05.2017 02:00:00 - - - - - - -
20.05.2017 01:00:00 - - - - - - -
20.05.2017 00:00:00 - - - - - - -
19.05.2017 23:00:00 - - - - - - -
19.05.2017 22:00:00 - - - - - - -
19.05.2017 21:00:00 - - - - - - -
19.05.2017 20:00:00 18,4 16,7 26 14 NO 1018,4 20
19.05.2017 19:00:00 - - - - - - -
19.05.2017 18:00:00 - - - - - - -
19.05.2017 17:00:00 20,4 18,7 28 15 NO 1017,2 25
19.05.2017 16:00:00 - - - - - - -
19.05.2017 15:00:00 - - - - - - -
19.05.2017 14:00:00 21,4 20,6 34 18 NO 1016,2 20
19.05.2017 13:00:00 - - - - - - -
19.05.2017 12:00:00 - - - - - - -
19.05.2017 11:00:00 22,4 21,7 16 9 ONO 1014,7 20
19.05.2017 10:00:00 - - - - - - -
19.05.2017 09:00:00 - - - - - - -
19.05.2017 08:00:00 20,0 19,2 8 4 ESE 1013,2 20
19.05.2017 07:00:00 - - - - - - -
19.05.2017 06:00:00 - - - - - - -
19.05.2017 05:00:00 - - - - - - -
19.05.2017 04:00:00 - - - - - - -
19.05.2017 03:00:00 - - - - - - -
19.05.2017 02:00:00 - - - - - - -
19.05.2017 01:00:00 - - - - - - -
19.05.2017 00:00:00 - - - - - - -
18.05.2017 23:00:00 - - - - - - -
18.05.2017 22:00:00 - - - - - - -
18.05.2017 21:00:00 - - - - - - -
18.05.2017 20:00:00 25,2 16,9 31 17 SE 1011,8 20
18.05.2017 19:00:00 - - - - - - -
18.05.2017 18:00:00 - - - - - - -
18.05.2017 17:00:00 26,2 18,9 11 6 ONO 1013,1 20
18.05.2017 16:00:00 - - - - - - -
18.05.2017 15:00:00 - - - - - - -
18.05.2017 14:00:00 26,4 17,5 13 7 OSO 1014,1 20
18.05.2017 13:00:00 - - - - - - -
18.05.2017 12:00:00 - - - - - - -
18.05.2017 11:00:00 24,8 18,0 26 14 ESE 1015,0 20
18.05.2017 10:00:00 - - - - - - -
18.05.2017 09:00:00 - - - - - - -
18.05.2017 08:00:00 20,2 17,4 21 11 SE 1015,8 20
18.05.2017 07:00:00 - - - - - - -
18.05.2017 06:00:00 - - - - - - -
18.05.2017 05:00:00 - - - - - - -
18.05.2017 04:00:00 - - - - - - -
18.05.2017 03:00:00 - - - - - - -
18.05.2017 02:00:00 - - - - - - -
18.05.2017 01:00:00 - - - - - - -
18.05.2017 00:00:00 - - - - - - -
17.05.2017 23:00:00 - - - - - - -
17.05.2017 22:00:00 - - - - - - -
17.05.2017 21:00:00 - - - - - - -
17.05.2017 20:00:00 21,0 21,0 15 8 O 1019,1 25
17.05.2017 19:00:00 - - - - - - -
17.05.2017 18:00:00 - - - - - - -
17.05.2017 17:00:00 21,8 21,5 15 8 OSO 1020,1 25
17.05.2017 16:00:00 - - - - - - -

tt = Temperatura
td = dewpoint
ff = velocità del vento
dd = direzione del vento
ppp = reduced air pressure
vv = visibility

Stazioni seguenti

WeatherPro
AMSI
MeteoEarth